STARLINK-11485, 62229

Orbit data source: Space-Track

STARLINK-11485, 62229 is a payload satellite owned by SpaceX/Seattle (US) in LEO that was launched on Thu, 05 Dec 2024 UTC via an FALCON 9 launch vehicle from the Air Force Western Test Range (AFWTR). Payloads include a variety of satellites, spacecraft, and rockets equipped with specific instruments for various scientific and technological missions. These include communications satellites like Starlink; space stations such as the ISS; scientific satellites like the Hubble; Earth observation satellites from companies like Planet Labs, Umbra, and HawkEye 360; GPS; miniature CubeSats for education and research; and military/defense satellites.

Loading next visibility...
STARLINK-11485 details
Identifier
62229, 2024-231M
Orbit
LEO
Last TLE update16 hours ago
Origin
Flag of USSpaceX/Seattle (US)
ManufacturerSpaceX/Seattle
MissionOperational spacecraft
Bus & MotorSTARLINK V2M, Unknown motor
Mass730 kg wet, ~700 kg dry
Launch date (UTC)
2024-12-05 (2 months ago)
Launch vehicle
FALCON 9
Launch site
Air Force Western Test Range (AFWTR)
Object type
Payload
Rocket body
Debris
Shape & HBRUnknown
Radar Cross SectionLarge (>1 m²)

Expand to show TLE details & history

TLE from 16 hours ago
0 STARLINK-11485
1 62229U 24231M   25025.19208198 -.00000826  00000-0 -19635-5 0  9992
2 62229  53.1581 314.9176 0001140  92.4968 267.6180 15.69700658  8994
Epoch: 2025-01-25T04:36Z
Definitive object data (Epoch: 2025-01-25T04:36:35.883Z)
Latitude-0.00003°
Longitude121.02363°
Altitude360.7 km
Speed7.694 km/s
True Right ascension20h 59m 40s
True Declination0° 00' 00"
Sunlit
Object was in daylight at TLE epoch
Visualization TLE readout
Latitude13.12546°
Longitude-72.26287°
Altitude359.632 km
Speed7.696 km/s
Apparent Right ascension08h 53m 14s
Apparent Declination-12° 53' 32"
Sunlit
Object is in full shadow
Visualization observer readout
Local Sidereal Time21:56:10
Azimuth31.528° NE
Elevation-59.632°
Doppler factor1
Orbital elements
Apogee altitude360.783 km
Perigee altitude359.246 km
Semi-major axis6,738.151 km
Eccentricity0.000114
Inclination53.1581°
RAAN314.9176°
Arg. of periapsis92.4968°
True anomaly267.60495°
Mean anomaly267.618°
Eccentric anomaly267.61147°
Mean motion3.92403 °/min
BSTAR-0.0000019635
Orbital period91.74 mins
Loading maneuver chart data...
Loading historical data...
Loading historical data...
Loading historical data...
Loading historical data...
Loading historical data...
Loading historical data...
Loading historical data...

STARLINK-11485 Visibility forecast

Observer location: undefined°, undefined

Span
Click to sort rows by Start time (UTC) header in descending order
Start Az.
Max El. time (UTC)
Max El. Az.
Max El.
End time (UTC)
End Az.
5 mins2025-01-25 21:35:03.115Z211.925° SW2025-01-25 21:38:03.115Z122.587° SE36.461°2025-01-25 21:40:03.115Z64.147° ENE
4 mins2025-01-26 04:01:03.115Z342.235° N2025-01-26 04:02:03.115Z11.897° NNE26.858°2025-01-26 04:05:03.115Z98.737° ESE
|